Location: Hermaringen
(48.5952°N, 10.2585°E)
Time: 11:01:57
(UTC+00:00)

A-11 Canister half - Pass Details

Date: 17 February 2026
Orbit: 1513 x 1687 km, 47.2° (Epoch: 11 March)

Event Time Altitude Azimuth Distance (km) Brightness Sun altitude
Exits shadow 01:42:37 17° 126° (SE) 3,204 10.7 -44.6°
Drops below altitude 10° 01:44:22 10° 124° (SE) 3,741 11.1 -44.4°
Sets 01:47:24 0° 122° (ESE) 4,703 11.7 -44.0°
